CHINASAT 3B

导读

CHINASAT 3B即中星3B卫星,是由中国自主研制的通信卫星。北京时间2025年5月20日19时50分,中国在文昌航天发射场使用长征七号改运载火箭,成功将该卫星送入预定轨道,发射任务圆满完成。中星3B卫星主要面向各类用户提供话音通信、数据传输以及广播电视传输服务,将进一步丰富我国通信卫星资源,提升空间通信服务保障能力。此次发射也是长征系列运载火箭的第577次飞行。

Basic Information
目录编号:
64062
目录名称:
CHINASAT 3B
国际标识:
2025-106A
轨道中心:
EARTH
卫星名称:
CHINASAT 3B
卫星全名:
CHINASAT 3B
卫星状态:
在轨 (已飞行473 天)
发射日期:
2025-05-20 UTC
国别 :
中国 (CN)
星等 :
--
Orbit Information
数据来源 国际轨道数据
星历时间: 2026-09-05T05:56:28+0800
14小时前
查看轨道信息
半长轴: 42165.065km
偏心率: 0.0002208
轨道倾角: 0.008°
近地点辐角 343.187°
升交点赤经 201.184°
平近点角 296.081°
近地点: 35777.617km
远地点: 35796.239km
周期: 1436.114分钟
每日圈数: 1.002706
Detailed Information
使用方式:
暂无
2D Orbit Map
3D Orbit Map
Orbit Altitude Analysis Chart
Orbit Inclination Analysis Chart
Orbit Comprehensive Analysis Chart
View Comprehensive Chart